ONEWEB-0335 (49201 NORAD) Tracking and Keplerian Element Data

This shows tracking and keplerian element data for the satellite.

Feedback or suggestion? Click here.




ElementValue
Catalog49201
NameONEWEB-0335
Epoch Orbit775
Epoch Day300.58334491
Epoch Year2021
RAAN313.1078
Inclination87.2017
Eccentricity0.0023066
Argument of Perigee136.0935
Mean Anonmoly104.0144
Mean Motion14.87095803
Decay Rate-0.00029826
L11 49201U 21083R 21300.58334491 -.00029826 00000-0 -33292-2 0 9993
L22 49201 87.2017 313.1078 0023066 136.0935 104.0144 14.87095803 7758

Live tracking and technical data element details for ONEWEB-0335 (NORAD 49201). ONEWEB-0335 can be tracked NOW for your location showing map with azimuth and elevation plus other details from your city location.

Track the satellite on the map from your city or location and see movement details for azimuth, elevation, latitude, longitude, range, height, and movement on the map or in text.







IsCatalogInMostPopularTable: catalog: 49201, numindb: 10
Update: records affected: 1



GetName: 49201 ONEWEB-0335

Hit Count: updated at: Thu, 28 Oct 2021 10:51:43 GMT